www.pogodaiklimat.ru

Погода и климат >> Архив погоды >> Россия >> Крым >> Феодосия


АРХИВ ПОГОДЫ в Феодосии

Время (UTC), дата Ветер
(напр.,м/с)
 
Видим.   Явления Облачность Т
(С)
Тd
(С)
f
(%)
Тe
(С)
Тes
(С)
Комфортность P
(гПа)
Po
(гПа)
Тmin
(С)
Tmax
(С)
R
(мм)
R24
(мм)
S
(см)
09 11.06 В 2 20 км 8/3 600 м
[Cu med, cong Ac cuf Ci fib]
+30.4 +13.2 35 +32 +37 жарко 1012.2 1009.3
12 11.06 Ю 3 20 км 9/6 600 м
[Cb cap Ac cuf Ci fib]
+25.8 +13.3 46 +28 +29 жарко 1012.3 1009.3
15 11.06 СВ 4 20 км 9/5 600 м
[Cb cap Ac cuf Ci fib]
+27.8 +15.4 47 +31 +31 душно 1011.0 1008.0
18 11.06 З 1 10 км 9/5 600 м
[Sc diur, vesp Ac trans]
+25.6 +18.4 64 +30 +30 душно 1010.2 1007.1 +30.9
21 11.06 З 2 10 км 5/0
[Ac trans]
+24.2 +19.3 74 +29 +29 душно 1009.7 1006.7
00 12.06 СЗ 2 10 км ясно +23.8 +18.9 74 +29 +29 душно 1008.3 1005.3
03 12.06 З 2 10 км в посл. час ливневой дождь 5/5 600 м
[Cb cap]
+23.0 +18.9 78 +29 +29 очень
душно
1007.8 1004.7 +23.0 0.0
06 12.06 СЗ 2 10 км {ливн. осадки} 6/0
[Ac trans Ci fib]
+28.3 +18.7 56 +33 +37 очень
душно
1008.2 1005.3 +22.9 0.0
09 12.06 С 4 10 км 6 баллов +31.8 +13.5 33 +33 +38 жарко 1008.2 1005.3
12 12.06 СВ 2 10 км 6/0
[Ci fib]
+30.7 +16.3 42 +34 +40 очень
душно
1009.6 1006.7
15 12.06 СЗ 2 10 км 4/3 1000 м
[Cu med, cong Ci fib]
+28.4 +10.6 33 +29 +31 жарко 1009.7 1006.7
18 12.06 З 2 10 км 6/3 600 м
[Sc diur, vesp Ci fib]
+24.8 +20.1 75 +30 +30 душно 1008.4 1005.3 +32.4
21 12.06 З 2 10 км 6/0
[Ac trans]
+23.6 +20.1 81 +29 +29 душно 1009.7 1006.7
00 13.06 З 2 10 км ясно +23.1 +19.3 79 +29 +29 очень
душно
1009.7 1006.7
03 13.06 З 2 10 км 4/0
[Ac lent]
+22.6 +20.6 88 +29 +30 очень
душно
1009.1 1006.0 +22.4
06 13.06 С 1 10 км 8/0
[Ac trans Ci fib]
+28.0 +22.7 73 +37 +40 очень
душно
1010.9 1008.0 +22.4
09 13.06 В 2 10 км 8/5 600 м
[Cb calv Ci fib]
+29.6 +19.6 55 +36 +41 очень
душно
1010.9 1008.0
12 13.06 В 1 10 км слаб. ливневой дождь {гроза} 9/9 600 м
[Cb cap]
+24.8 +23.3 91 +33 +35 очень
душно
1011.4 1008.3
15 13.06 В 2 10 км гроза без осадков {ливн. осадки} 9/9 600 м
[Cb cap]
+26.0 +23.4 86 +35 +36 очень
душно
1012.3 1009.2 1
18 13.06 З 1 10 км {гроза, ливн. осадки} 6/3 600 м
[Sc diur, vesp Ci fib]
+23.0 +20.4 85 +30 +30 очень
душно
1011.7 1008.6 +30.7 1
21 13.06 З 2 10 км 8/0
[Ac trans Ci fib]
+23.3 +20.8 86 +31 +31 очень
душно
1012.3 1009.3
00 14.06 З 2 10 км ясно +22.8 +19.9 84 +29 +29 очень
душно
1012.3 1009.3
03 14.06 СЗ 1 10 км 8/4 600 м
[Sc Ac trans]
+21.6 +19.1 86 +27 +27 душно 1012.1 1009.0 +21.6
06 14.06 СВ 2 10 км 8/4 600 м
[Sc Ac trans]
+26.4 +19.6 66 +32 +35 очень
душно
1013.0 1009.9 +21.4
09 14.06 В 3 10 км 8/4 600 м
[Sc Ac trans]
+27.7 +17.8 55 +32 +37 очень
душно
1015.0 1012.0
12 14.06 В 2 10 км 3/0
[Ac trans]
+28.6 +15.1 44 +31 +43 жарко 1015.0 1012.0
15 14.06 В 1 10 км ясно +26.8 +12.1 40 +28 +32 жарко 1013.7 1010.7
18 14.06 С 2 10 км 3/0
[Ci fib]
+25.0 +18.8 68 +30 +30 душно 1014.3 1011.2 +29.1
21 14.06 СЗ 1 10 км 3/0
[Ci fib]
+22.6 +18.1 76 +28 +28 душно 1015.0 1012.0
00 15.06 СЗ 2 10 км 3/0
[Ci fib]
+22.6 +16.8 70 +27 +27 душно 1013.7 1010.7
03 15.06 СЗ 2 10 км 8/0
[Cc]
+22.4 +13.8 58 +26 +26 жарко 1013.0 1009.9 +22.0
06 15.06 СВ 3 10 км 4/0
[Ac trans Ci fib]
+28.6 +12.5 37 +30 +35 жарко 1013.7 1010.7 +22.0
09 15.06 СВ 3 10 км 8/0
[Ac cast Cc]
+29.6 +13.8 38 +31 +36 жарко 1013.7 1010.7
12 15.06 С 3 20 км 6/0
[Ac trans Ci fib]
+31.4 +11.7 30 +32 +37 жарко 1012.2 1009.3
15 15.06 СВ 4 10 км 3/0
[Ac trans]
+28.2 +16.8 50 +32 +34 душно 1011.0 1008.0
18 15.06 СЗ 2 10 км 3/0
[Ac trans]
+26.6 +13.8 45 +29 +29 жарко 1010.7 1007.6 +31.4
21 15.06 З 2 10 км ясно +24.2 +10.8 43 +25 +25 комфорт 1012.3 1009.3
00 16.06 З 2 10 км ясно +22.9 +12.5 52 +26 +26 жарко 1011.0 1008.0
03 16.06 З 2 10 км 4/0
[Ci fib]
+22.5 +16.8 70 +27 +28 душно 1010.1 1007.0 +22.5
06 16.06 СЗ 3 10 км 6/0
[Ci fib]
+27.8 +16.1 49 +31 +34 душно 1011.0 1008.0 +22.4
09 16.06 СВ 4 10 км 8/0
[Ci fib]
+32.2 +8.4 23 +31 +35 жарко 1010.9 1008.0
12 16.06 СВ 4 10 км 4/0
[Ci fib]
+32.8 +12.4 29 +33 +39 жарко 1010.9 1008.0
15 16.06 С 2 10 км ясно +31.1 +8.7 25 +30 +34 жарко 1009.6 1006.7
18 16.06 З 2 10 км ясно +26.2 +14.9 50 +29 +29 жарко 1009.7 1006.7 +33.1
21 16.06 З 1 10 км ясно +22.6 +12.2 52 +25 +25 комфорт 1011.0 1008.0
00 17.06 З 2 10 км ясно +24.4 +16.6 62 +28 +28 душно 1009.7 1006.7
03 17.06 З 2 10 км ясно +23.6 +21.9 90 +30 +31 очень
душно
1010.0 1006.9 +22.6
06 17.06 СЗ 3 10 км 6/6 600 м
[Cb calv]
+28.2 +26.6 91 +44 +47 опасность
перегрева
1012.2 1009.3 +22.6
09 17.06 СВ 4 10 км ясно +30.6 +20.2 54 +37 +50 очень
душно
1012.2 1009.3
12 17.06 СВ 4 10 км ясно +28.5 +21.5 66 +36 +46 очень
душно
1012.2 1009.3
15 17.06 СВ 4 10 км ясно +27.2 +20.5 67 +34 +36 очень
душно
1012.3 1009.3
18 17.06 СЗ 2 10 км ясно +24.9 +18.6 68 +30 +30 душно 1012.3 1009.3 +30.7
21 17.06 СЗ 2 10 км ясно +23.4 +18.7 75 +30 +30 очень
душно
1013.7 1010.7
00 18.06 З 2 10 км 4/0
[Ac trans]
+22.8 +20.5 87 +30 +30 очень
душно
1013.7 1010.7
03 18.06 З 1 10 км 6/0
[Ac trans Ci fib]
+22.2 +20.3 89 +28 +29 душно 1012.6 1009.5 +22.2
06 18.06 СВ 3 10 км ясно +27.6 +18.3 57 +32 +40 очень
душно
1013.7 1010.7 +22.0

 

Местоположение метеостанции Феодосия (Крым, Россия): широта 45.03 долгота 35.38 высота над уровнем моря 26 м.

В архиве по умолчанию представлена погода в Феодосии за последнюю неделю. Архивные данные за месяц целиком и за предыдущие месяцы, начиная с января 2011 года, Вы можете получить, выбрав интересующий диапазон дат из раскрывающегося списка и нажав кнопку "Ввод!".


*Определитесь, кто Вы:
робот инопланетянин человек

Внимание! Время в таблицах - всемирное. Для получения местного времени необходимо прибавить поправку, которая равна 3 ч.

Смотрите также архив погоды в соседних городах и на ближайших метеорологических станциях:

Погода в Владиславовке (Крым, Россия) (16 км)
Погода в Карадаге (Крым, Россия) (20 км)
Погода в Мысовом (Крым, Россия) (58 км)
Погода в Белогорске (Крым, Россия) (61 км)
Погода в Нижнегорском (Крым, Россия) (69 км)
Погода на Ангарском Перевале (Крым, Россия) (87 км)
Погода в Стрелковом (Херсонская область, Украина) (87 км)
Погода в Алуште (Крым, Россия) (87 км)
Погода в Керчи (Крым, Россия) (91 км)
Погода в Симферополе город (Крым, Россия) (100 км)

Пояснения к столбцам:

Ветер - указаны скорость ветра в м/с - средняя за 10 мин, порывы в срок и между сроками (в фигурных скобках) и направление, откуда дует ветер: С - северный, СВ - северо-восточный, В - восточный, ЮВ - юго-восточный, Ю - южный, ЮЗ - юго-западный, З - западный, СЗ - северо-западный.
Видимость - горизонтальная дальность видимости в метрах или километрах. При видимости от 1 до 10 км при отсутствии осадков обычно наблюдается дымка, при ухудшении видимости до 1 км и менее - туман. В сухую погоду видимость может ухудшаться дымом, пылью или мглою.
Явления - указаны атмосферные явления, наблюдавшиеся в срок или в последний час перед сроком; фигурными скобками обозначены явления, наблюдавшиеся между сроками (за 1-3 часа до срока); квадратными скобками обозначены град или гололедные отложения с указанием их диаметра в мм.
Облачность - указаны через наклонную черту общая и нижняя облачность в баллах и высота нижней границы облаков в метрах; квадратными скобками обозначены формы облаков: Ci - перистые, Cs - перисто-слоистые, Cc - перисто-кучевые, Ac - высококучевые, As - высокослоистые, Sc - слоисто-кучевые, Ns - слоисто-дождевые, Cu - кучевые, Cb - кучево-дождевые. Подробнее классификацию облаков см. в Атласе облаков (PDF).
T - Температура воздуха - температура, измеренная на высоте 2 м над землей.
Td - Температура точки росы - температура, при понижении до которой содержащийся в воздухе водяной пар достигнет насыщения.
f - Относительная влажность воздуха - влажноcть воздуха, измеренная на высоте 2 м над землей.
Te - Эффективная температура - температура, которую ощущает одетый по сезону человек в тени. Характеристика душности погоды. При расчете учитывается влияние влажности воздуха и скорости ветра на теплоощущения человека.
Tes - Эффективная температура на солнце - температура, которую ощущает человек, с поправкой на солнечный нагрев. Характеристика знойности погоды. Зависит от высоты солнца над горизонтом, облачности и скорости ветра. Ночью, в пасмурную погоду, а также при ветре 12 м/с и более поправка равна нулю.
P - Атмосферное давление - приведенное к уровню моря атмосферное давление.
Po - Атмосферное давление - измеренное на уровне метеостанции атмосферное давление.
Tmin - Минимальная температура - минимум температуры воздуха на высоте 2 м над землей.
Tmax - Максимальная температура - максимум температуры воздуха на высоте 2 м над землей.
R - Количество осадков - Количество выпавших осадков за период времени, мм. При наведении курсора мыши на число - период времени, за который выпало указанное количество осадков.
R24 - Количество осадков - Количество выпавших осадков за 24 часа, мм.
S - Снежный покров - Высота снежного покрова, см. При наведении курсора мыши на число - состояние снежного покрова и степень покрытия местности в баллах.